C/2024 C4 ( ATLAS )

Japanese version
Home page
Updated on May 21, 2024

---------------------------------------------------------------------

* Profile

Discovery Date February 14, 2024
Magnitude 17.4 mag
Discoverer Asteroid Terrestrial-Impact Last Alert System (ATLAS) search program

* Pictures

* Orbital Elements

Epoch 2024 Mar. 31.0 TT = JDT 2460400.5
T 2024 Jan. 30.19707 TT                                 Rudenko
q   1.4712442            (2000.0)            P               Q
z  +0.0119409      Peri.  321.52239     -0.66904475     -0.37695680
 +/-0.0000043      Node   220.68470     -0.14456666     -0.77936647
e   0.9824320      Incl.   79.28667     -0.72902648     +0.50049124
>From 445 observations 2024 Feb. 14-May 14, mean residual 0".7.

* Finding Charts

* Magnitudes Graph

        m1 = 13.5 + 5 log d + 10.0 log r

---------------------------------------------------------------------

The orbital elements are published on M.P.E.C. 2024-J304.
The charts are made with StellaNavigator Ver.11 (AstroArts).
The magnitudes graphs are made with Comet for Windows.

---------------------------------------------------------------------

Copyright(C) Seiichi Yoshida (comet@aerith.net). All rights reserved.